| time (UTC) | temp F | wind direction | speed knots | gust knots | rain 1hr in | rain 24hr in | rain mn in | humidity % | barometer mb |
| 20260508044057 | 55 | 122 | 0.0 | 4.3 | 0.00 | 0.00 | 0.00 | 18 | 1010.3 |
| 20260508043513 | 55 | 106 | 1.7 | 4.3 | 0.00 | 0.00 | 0.00 | 18 | 1010.3 |
| 20260508043031 | 56 | 126 | 0.0 | 1.7 | 0.00 | 0.00 | 0.00 | 18 | 1010.3 |
| 20260508042537 | 56 | 126 | 0.0 | 1.7 | 0.00 | 0.00 | 0.00 | 18 | 1010.3 |
| 20260508042046 | 56 | 126 | 0.0 | 0.9 | 0.00 | 0.00 | 0.00 | 17 | 1010.2 |
| 20260508041502 | 57 | 126 | 0.0 | 0.9 | 0.00 | 0.00 | 0.00 | 16 | 1010.2 |
| 20260508041012 | 57 | 126 | 0.0 | 0.9 | 0.00 | 0.00 | 0.00 | 16 | 1010.2 |
| 20260508040528 | 57 | 127 | 0.0 | 0.9 | 0.00 | 0.00 | 0.00 | 15 | 1010.2 |
| 20260508040043 | 57 | 126 | 0.0 | 1.7 | 0.00 | 0.00 | 0.00 | 15 | 1010.2 |
| 20260508035553 | 58 | 126 | 0.0 | 1.7 | 0.00 | 0.00 | 0.00 | 15 | 1010.2 |
| 20260508035100 | 58 | 126 | 0.0 | 2.6 | 0.00 | 0.00 | 0.00 | 15 | 1010.2 |
| 20260508035002 | 58 | 126 | 0.0 | 2.6 | 0.00 | 0.00 | 0.00 | 15 | 1010.2 |
| 20260508034523 | 58 | 126 | 0.9 | 2.6 | 0.00 | 0.00 | 0.00 | 15 | 1010.1 |
| 20260508034026 | 58 | 133 | 0.0 | 2.6 | 0.00 | 0.00 | 0.00 | 14 | 1010.0 |
| 20260508033540 | 59 | 133 | 0.0 | 2.6 | 0.00 | 0.00 | 0.00 | 14 | 1010.0 |
| 20260508033049 | 59 | 133 | 0.9 | 2.6 | 0.00 | 0.00 | 0.00 | 14 | 1009.9 |
| 20260508032504 | 60 | 129 | 0.0 | 2.6 | 0.00 | 0.00 | 0.00 | 13 | 1009.8 |
| 20260508032014 | 60 | 125 | 0.0 | 2.6 | 0.00 | 0.00 | 0.00 | 13 | 1009.6 |
| 20260508031528 | 61 | 131 | 0.0 | 2.6 | 0.00 | 0.00 | 0.00 | 13 | 1009.6 |
| 20260508031038 | 61 | 131 | 0.0 | 1.7 | 0.00 | 0.00 | 0.00 | 13 | 1009.5 |
| 20260508030552 | 61 | 131 | 0.0 | 1.7 | 0.00 | 0.00 | 0.00 | 12 | 1009.5 |
| 20260508030007 | 62 | 131 | 0.0 | 1.7 | 0.00 | 0.00 | 0.00 | 12 | 1009.4 |
| 20260508025520 | 62 | 131 | 0.0 | 2.6 | 0.00 | 0.00 | 0.00 | 12 | 1009.4 |
| 20260508025036 | 62 | 131 | 0.9 | 2.6 | 0.00 | 0.00 | 0.00 | 12 | 1009.3 |
| 20260508024548 | 62 | 131 | 0.9 | 2.6 | 0.00 | 0.00 | 0.00 | 11 | 1009.2 |
| 20260508024059 | 63 | 131 | 0.0 | 1.7 | 0.00 | 0.00 | 0.00 | 11 | 1009.2 |
| 20260508024005 | 64 | 130 | 0.0 | 1.7 | 0.00 | 0.00 | 0.00 | 11 | 1009.2 |
| 20260508023514 | 65 | 130 | 0.0 | 0.9 | 0.00 | 0.00 | 0.00 | 10 | 1009.1 |
| 20260508023028 | 66 | 130 | 0.0 | 0.9 | 0.00 | 0.00 | 0.00 | 10 | 1009.0 |
| 20260508022538 | 66 | 129 | 0.0 | 1.7 | 0.00 | 0.00 | 0.00 | 10 | 1009.0 |
| 20260508022053 | 67 | 130 | 0.0 | 1.7 | 0.00 | 0.00 | 0.00 | 10 | 1009.0 |
| 20260508021504 | 67 | 129 | 0.0 | 0.9 | 0.00 | 0.00 | 0.00 | 9 | 1008.9 |
| 20260508021026 | 68 | 129 | 0.0 | 1.7 | 0.00 | 0.00 | 0.00 | 9 | 1008.8 |
| 20260508020528 | 69 | 130 | 0.0 | 1.7 | 0.00 | 0.00 | 0.00 | 9 | 1008.8 |
| 20260508020045 | 69 | 124 | 0.0 | 2.6 | 0.00 | 0.00 | 0.00 | 8 | 1008.7 |
| 20260508015552 | 70 | 124 | 0.0 | 4.3 | 0.00 | 0.00 | 0.00 | 8 | 1008.7 |
| 20260508015012 | 71 | 149 | 0.9 | 4.3 | 0.00 | 0.00 | 0.00 | 8 | 1008.6 |
| 20260508014518 | 72 | 132 | 0.0 | 5.2 | 0.00 | 0.00 | 0.00 | 8 | 1008.6 |
| 20260508014032 | 73 | 134 | 0.9 | 5.2 | 0.00 | 0.00 | 0.00 | 8 | 1008.6 |
| 20260508013542 | 74 | 158 | 0.9 | 4.3 | 0.00 | 0.00 | 0.00 | 8 | 1008.5 |
| 20260508013056 | 75 | 143 | 0.0 | 2.6 | 0.00 | 0.00 | 0.00 | 9 | 1008.5 |
| 20260508012515 | 76 | 155 | 0.0 | 4.3 | 0.00 | 0.00 | 0.00 | 11 | 1008.4 |
| 20260508012022 | 77 | 169 | 0.0 | 4.3 | 0.00 | 0.00 | 0.00 | 10 | 1008.2 |
| 20260508011541 | 77 | 115 | 0.0 | 0.9 | 0.00 | 0.00 | 0.00 | 10 | 1008.3 |
| 20260508011047 | 76 | 115 | 0.0 | 3.5 | 0.00 | 0.00 | 0.00 | 11 | 1008.3 |
| 20260508010556 | 76 | 115 | 0.9 | 3.5 | 0.00 | 0.00 | 0.00 | 11 | 1008.3 |
| 20260508010022 | 76 | 115 | 0.0 | 3.5 | 0.00 | 0.00 | 0.00 | 10 | 1008.3 |
| 20260508005522 | 77 | 121 | 0.0 | 3.5 | 0.00 | 0.00 | 0.00 | 10 | 1008.3 |
| 20260508005037 | 77 | 122 | 0.0 | 3.5 | 0.00 | 0.00 | 0.00 | 11 | 1008.2 |
| 20260508004546 | 77 | 129 | 0.9 | 4.3 | 0.00 | 0.00 | 0.00 | 11 | 1008.2 |
| 20260508004100 | 77 | 111 | 0.9 | 4.3 | 0.00 | 0.00 | 0.00 | 10 | 1008.2 |
| 20260508004004 | 77 | 102 | 0.9 | 4.3 | 0.00 | 0.00 | 0.00 | 10 | 1008.2 |
| 20260508003516 | 77 | 122 | 0.9 | 3.5 | 0.00 | 0.00 | 0.00 | 10 | 1008.2 |
| 20260508003028 | 77 | 121 | 0.0 | 7.8 | 0.00 | 0.00 | 0.00 | 10 | 1008.3 |
| 20260508002543 | 76 | 122 | 0.9 | 7.8 | 0.00 | 0.00 | 0.00 | 10 | 1008.2 |
| 20260508002052 | 77 | 126 | 1.7 | 6.1 | 0.00 | 0.00 | 0.00 | 10 | 1008.3 |
| 20260508001510 | 77 | 103 | 0.0 | 5.2 | 0.00 | 0.00 | 0.00 | 9 | 1008.3 |
| 20260508001018 | 78 | 129 | 2.6 | 5.2 | 0.00 | 0.00 | 0.00 | 9 | 1008.3 |
| 20260508000535 | 79 | 124 | 0.0 | 1.7 | 0.00 | 0.00 | 0.00 | 9 | 1008.3 |
| 20260508000054 | 78 | 122 | 0.0 | 6.1 | 0.00 | 0.00 | 0.00 | 10 | 1008.4 |
| 20260507235600 | 78 | 118 | 0.0 | 3.5 | 0.00 | 0.00 | 0.00 | 10 | 1008.4 |
| 20260507235010 | 78 | 108 | 0.0 | 3.5 | 0.00 | 0.00 | 0.00 | 9 | 1008.5 |
| 20260507234530 | 77 | 110 | 0.9 | 4.3 | 0.00 | 0.00 | 0.00 | 9 | 1008.5 |
| 20260507234032 | 77 | 120 | 0.9 | 6.1 | 0.00 | 0.00 | 0.00 | 10 | 1008.6 |
| 20260507233546 | 77 | 124 | 1.7 | 6.1 | 0.00 | 0.00 | 0.00 | 9 | 1008.6 |
| 20260507233056 | 78 | 143 | 1.7 | 4.3 | 0.00 | 0.00 | 0.00 | 8 | 1008.7 |
| 20260507232515 | 78 | 117 | 1.7 | 4.3 | 0.00 | 0.00 | 0.00 | 8 | 1008.7 |
| 20260507232021 | 78 | 163 | 0.9 | 6.1 | 0.00 | 0.00 | 0.00 | 9 | 1008.8 |
| 20260507231543 | 78 | 153 | 1.7 | 6.1 | 0.00 | 0.00 | 0.00 | 9 | 1008.9 |
| 20260507231046 | 77 | 124 | 0.9 | 5.2 | 0.00 | 0.00 | 0.00 | 8 | 1008.9 |
| 20260507230600 | 77 | 115 | 0.0 | 5.2 | 0.00 | 0.00 | 0.00 | 9 | 1009.0 |
| 20260507230502 | 77 | 115 | 0.0 | 5.2 | 0.00 | 0.00 | 0.00 | 9 | 1009.0 |
| 20260507230012 | 76 | 119 | 1.7 | 5.2 | 0.00 | 0.00 | 0.00 | 9 | 1009.0 |
| 20260507225530 | 76 | 111 | 0.9 | 6.1 | 0.00 | 0.00 | 0.00 | 9 | 1009.2 |
| 20260507225039 | 77 | 113 | 1.7 | 6.1 | 0.00 | 0.00 | 0.00 | 9 | 1009.2 |
| 20260507224552 | 77 | 128 | 1.7 | 6.1 | 0.00 | 0.00 | 0.00 | 9 | 1009.3 |
| 20260507224008 | 77 | 124 | 0.0 | 6.1 | 0.00 | 0.00 | 0.00 | 9 | 1009.3 |
| 20260507223520 | 77 | 118 | 0.0 | 7.8 | 0.00 | 0.00 | 0.00 | 9 | 1009.4 |
| 20260507223033 | 77 | 121 | 1.7 | 7.8 | 0.00 | 0.00 | 0.00 | 9 | 1009.4 |
| 20260507222541 | 78 | 114 | 0.9 | 6.1 | 0.00 | 0.00 | 0.00 | 9 | 1009.6 |
| 20260507222056 | 77 | 115 | 1.7 | 6.1 | 0.00 | 0.00 | 0.00 | 8 | 1009.7 |
| 20260507221510 | 78 | 129 | 0.9 | 6.1 | 0.00 | 0.00 | 0.00 | 9 | 1009.8 |
| 20260507221023 | 77 | 86 | 2.6 | 6.1 | 0.00 | 0.00 | 0.00 | 8 | 1009.8 |
| 20260507220536 | 78 | 118 | 2.6 | 6.1 | 0.00 | 0.00 | 0.00 | 8 | 1009.9 |
| 20260507220048 | 79 | 155 | 0.0 | 5.2 | 0.00 | 0.00 | 0.00 | 7 | 1010.0 |
| 20260507215558 | 78 | 122 | 0.9 | 5.2 | 0.00 | 0.00 | 0.00 | 8 | 1010.1 |
| 20260507215016 | 79 | 144 | 1.7 | 5.2 | 0.00 | 0.00 | 0.00 | 8 | 1010.3 |
| 20260507214529 | 79 | 148 | 0.0 | 2.6 | 0.00 | 0.00 | 0.00 | 7 | 1010.4 |
| 20260507214040 | 79 | 150 | 0.0 | 2.6 | 0.00 | 0.00 | 0.00 | 7 | 1010.5 |
| 20260507213550 | 77 | 160 | 0.0 | 4.3 | 0.00 | 0.00 | 0.00 | 8 | 1010.6 |
| 20260507213006 | 75 | 108 | 0.0 | 6.1 | 0.00 | 0.00 | 0.00 | 9 | 1010.8 |
| 20260507212516 | 75 | 120 | 0.9 | 5.2 | 0.00 | 0.00 | 0.00 | 8 | 1010.9 |
| 20260507212033 | 76 | 134 | 0.0 | 3.5 | 0.00 | 0.00 | 0.00 | 7 | 1011.1 |
| 20260507211550 | 77 | 130 | 0.9 | 3.5 | 0.00 | 0.00 | 0.00 | 8 | 1011.2 |
| 20260507211054 | 77 | 153 | 0.0 | 4.3 | 0.00 | 0.00 | 0.00 | 8 | 1011.2 |
| 20260507210506 | 78 | 122 | 0.9 | 5.2 | 0.00 | 0.00 | 0.00 | 9 | 1011.4 |
| 20260507210021 | 77 | 147 | 0.0 | 5.2 | 0.00 | 0.00 | 0.00 | 10 | 1011.4 |
| 20260507205530 | 76 | 146 | 0.9 | 4.3 | 0.00 | 0.00 | 0.00 | 10 | 1011.6 |
| 20260507205044 | 76 | 120 | 0.9 | 4.3 | 0.00 | 0.00 | 0.00 | 11 | 1011.7 |
| 20260507204555 | 77 | 129 | 0.0 | 1.7 | 0.00 | 0.00 | 0.00 | 11 | 1011.9 |
| 20260507204009 | 76 | 144 | 0.0 | 2.6 | 0.00 | 0.00 | 0.00 | 11 | 1012.0 |
| 20260507203525 | 74 | 139 | 0.0 | 6.1 | 0.00 | 0.00 | 0.00 | 12 | 1012.1 |
| 20260507203035 | 73 | 151 | 1.7 | 6.1 | 0.00 | 0.00 | 0.00 | 11 | 1012.2 |
| 20260507202552 | 73 | 125 | 0.9 | 4.3 | 0.00 | 0.00 | 0.00 | 12 | 1012.3 |
| 20260507202102 | 72 | 124 | 2.6 | 4.3 | 0.00 | 0.00 | 0.00 | 13 | 1012.4 |
| 20260507201517 | 72 | 121 | 0.9 | 5.2 | 0.00 | 0.00 | 0.00 | 14 | 1012.4 |
| 20260507201026 | 72 | 319 | 1.7 | 4.3 | 0.00 | 0.00 | 0.00 | 13 | 1012.6 |
| 20260507200540 | 72 | 161 | 0.0 | 3.5 | 0.00 | 0.00 | 0.00 | 14 | 1012.7 |
| 20260507200052 | 72 | 126 | 0.9 | 3.5 | 0.00 | 0.00 | 0.00 | 13 | 1012.7 |
| 20260507195507 | 73 | 141 | 0.0 | 4.3 | 0.00 | 0.00 | 0.00 | 15 | 1012.7 |
| 20260507195024 | 72 | 151 | 0.9 | 4.3 | 0.00 | 0.00 | 0.00 | 15 | 1012.9 |
| 20260507194537 | 72 | 179 | 0.9 | 6.1 | 0.00 | 0.00 | 0.00 | 14 | 1012.9 |
| 20260507194043 | 72 | 131 | 1.7 | 6.1 | 0.00 | 0.00 | 0.00 | 14 | 1013.0 |
| 20260507193557 | 71 | 278 | 0.9 | 4.3 | 0.00 | 0.00 | 0.00 | 15 | 1013.1 |
| 20260507193017 | 71 | 127 | 0.0 | 4.3 | 0.00 | 0.00 | 0.00 | 16 | 1013.2 |
| 20260507192523 | 70 | 105 | 0.9 | 4.3 | 0.00 | 0.00 | 0.00 | 15 | 1013.3 |
| 20260507192034 | 69 | 150 | 0.9 | 6.1 | 0.00 | 0.00 | 0.00 | 16 | 1013.4 |
| 20260507191548 | 69 | 153 | 1.7 | 6.1 | 0.00 | 0.00 | 0.00 | 19 | 1013.5 |
| 20260507191058 | 69 | 313 | 0.0 | 6.1 | 0.00 | 0.00 | 0.00 | 19 | 1013.5 |
| 20260507190518 | 69 | 198 | 3.5 | 6.1 | 0.00 | 0.00 | 0.00 | 19 | 1013.7 |
| 20260507190024 | 69 | 110 | 0.0 | 4.3 | 0.00 | 0.00 | 0.00 | 20 | 1013.7 |
| 20260507185537 | 68 | 129 | 0.9 | 6.1 | 0.00 | 0.00 | 0.00 | 20 | 1013.8 |
| 20260507185047 | 68 | 139 | 0.0 | 6.1 | 0.00 | 0.00 | 0.00 | 21 | 1014.0 |
| 20260507184504 | 68 | 212 | 0.9 | 4.3 | 0.00 | 0.00 | 0.00 | 20 | 1014.1 |
| 20260507184022 | 67 | 153 | 0.0 | 5.2 | 0.00 | 0.00 | 0.00 | 21 | 1014.3 |
| 20260507183529 | 66 | 163 | 2.6 | 5.2 | 0.00 | 0.00 | 0.00 | 20 | 1014.3 |
| 20260507183042 | 66 | 167 | 1.7 | 5.2 | 0.00 | 0.00 | 0.00 | 21 | 1014.4 |
| 20260507182551 | 66 | 168 | 1.7 | 6.1 | 0.00 | 0.00 | 0.00 | 23 | 1014.5 |
| 20260507182007 | 67 | 227 | 1.7 | 5.2 | 0.00 | 0.00 | 0.00 | 21 | 1014.6 |
| 20260507181518 | 66 | 108 | 0.9 | 3.5 | 0.00 | 0.00 | 0.00 | 22 | 1014.8 |
| 20260507181032 | 65 | 160 | 0.0 | 1.7 | 0.00 | 0.00 | 0.00 | 24 | 1014.8 |
| 20260507180546 | 63 | 122 | 0.0 | 7.0 | 0.00 | 0.00 | 0.00 | 24 | 1014.9 |
| 20260507180105 | 63 | 271 | 3.5 | 7.0 | 0.00 | 0.00 | 0.00 | 24 | 1015.0 |
| 20260507175511 | 63 | 159 | 0.0 | 6.1 | 0.00 | 0.00 | 0.00 | 25 | 1015.1 |
| 20260507175021 | 63 | 103 | 1.7 | 6.1 | 0.00 | 0.00 | 0.00 | 24 | 1015.3 |
| 20260507174545 | 64 | 277 | 1.7 | 4.3 | 0.00 | 0.00 | 0.00 | 24 | 1015.3 |
| 20260507174046 | 63 | 138 | 0.0 | 3.5 | 0.00 | 0.00 | 0.00 | 26 | 1015.4 |
| 20260507173555 | 64 | 113 | 0.0 | 3.5 | 0.00 | 0.00 | 0.00 | 23 | 1015.5 |
| 20260507173016 | 63 | 146 | 0.0 | 3.5 | 0.00 | 0.00 | 0.00 | 25 | 1015.6 |
| 20260507172520 | 63 | 165 | 0.0 | 3.5 | 0.00 | 0.00 | 0.00 | 25 | 1015.7 |
| 20260507172031 | 62 | 149 | 0.0 | 6.1 | 0.00 | 0.00 | 0.00 | 27 | 1015.8 |
| 20260507171600 | 62 | 298 | 0.9 | 6.1 | 0.00 | 0.00 | 0.00 | 26 | 1016.0 |
| 20260507171057 | 61 | 262 | 0.9 | 5.2 | 0.00 | 0.00 | 0.00 | 27 | 1016.1 |
| 20260507170509 | 60 | 130 | 0.9 | 5.2 | 0.00 | 0.00 | 0.00 | 28 | 1016.1 |
| 20260507170025 | 61 | 265 | 1.7 | 5.2 | 0.00 | 0.00 | 0.00 | 27 | 1016.1 |
| 20260507165535 | 61 | 165 | 1.7 | 5.2 | 0.00 | 0.00 | 0.00 | 29 | 1016.2 |
| 20260507165049 | 61 | 255 | 0.9 | 3.5 | 0.00 | 0.00 | 0.00 | 29 | 1016.1 |
| 20260507164558 | 60 | 155 | 0.0 | 2.6 | 0.00 | 0.00 | 0.00 | 28 | 1016.3 |
| 20260507164506 | 60 | 155 | 0.0 | 2.6 | 0.00 | 0.00 | 0.00 | 28 | 1016.3 |
| 20260507164014 | 60 | 165 | 0.0 | 4.3 | 0.00 | 0.00 | 0.00 | 30 | 1016.4 |
| 20260507163528 | 59 | 165 | 0.9 | 4.3 | 0.00 | 0.00 | 0.00 | 31 | 1016.5 |
| 20260507163037 | 59 | 170 | 0.0 | 3.5 | 0.00 | 0.00 | 0.00 | 32 | 1016.5 |
| 20260507162554 | 58 | 153 | 0.9 | 3.5 | 0.00 | 0.00 | 0.00 | 34 | 1016.5 |
| 20260507162004 | 58 | 164 | 0.9 | 4.3 | 0.00 | 0.00 | 0.00 | 34 | 1016.5 |
| 20260507161520 | 57 | 160 | 0.9 | 7.0 | 0.00 | 0.00 | 0.00 | 35 | 1016.6 |
| 20260507161027 | 56 | 160 | 2.6 | 7.0 | 0.00 | 0.00 | 0.00 | 35 | 1016.7 |
| 20260507160542 | 56 | 165 | 0.0 | 3.5 | 0.00 | 0.00 | 0.00 | 35 | 1016.7 |
| 20260507160112 | 56 | 162 | 0.0 | 2.6 | 0.00 | 0.00 | 0.00 | 36 | 1016.7 |
| 20260507155507 | 56 | 176 | 0.0 | 2.6 | 0.00 | 0.00 | 0.00 | 37 | 1016.7 |
| 20260507155017 | 55 | 157 | 0.0 | 3.5 | 0.00 | 0.00 | 0.00 | 37 | 1016.8 |
| 20260507154533 | 55 | 162 | 0.9 | 3.5 | 0.00 | 0.00 | 0.00 | 39 | 1016.9 |
| 20260507154041 | 55 | 157 | 0.9 | 4.3 | 0.00 | 0.00 | 0.00 | 39 | 1017.0 |
| 20260507153601 | 54 | 148 | 0.9 | 4.3 | 0.00 | 0.00 | 0.00 | 40 | 1017.0 |
| 20260507153007 | 54 | 155 | 0.0 | 3.5 | 0.00 | 0.00 | 0.00 | 43 | 1017.0 |
| 20260507152522 | 53 | 141 | 0.0 | 3.5 | 0.00 | 0.00 | 0.00 | 44 | 1017.2 |
| 20260507152033 | 52 | 149 | 0.0 | 3.5 | 0.00 | 0.00 | 0.00 | 44 | 1017.2 |
| 20260507151545 | 52 | 162 | 0.0 | 3.5 | 0.00 | 0.00 | 0.00 | 46 | 1017.2 |
| 20260507151055 | 51 | 150 | 0.0 | 3.5 | 0.00 | 0.00 | 0.00 | 45 | 1017.3 |
| 20260507150512 | 51 | 154 | 0.0 | 1.7 | 0.00 | 0.00 | 0.00 | 47 | 1017.3 |
| 20260507150021 | 50 | 157 | 0.0 | 4.3 | 0.00 | 0.00 | 0.00 | 49 | 1017.4 |
| 20260507145539 | 49 | 153 | 1.7 | 4.3 | 0.00 | 0.00 | 0.00 | 50 | 1017.4 |
| 20260507145049 | 49 | 167 | 0.9 | 5.2 | 0.00 | 0.00 | 0.00 | 50 | 1017.4 |
| 20260507144559 | 49 | 169 | 0.9 | 5.2 | 0.00 | 0.00 | 0.00 | 50 | 1017.5 |
| 20260507144501 | 49 | 154 | 0.9 | 5.2 | 0.00 | 0.00 | 0.00 | 50 | 1017.4 |
| 20260507144018 | 48 | 132 | 1.7 | 5.2 | 0.00 | 0.00 | 0.00 | 51 | 1017.5 |
| 20260507143528 | 48 | 165 | 1.7 | 5.2 | 0.00 | 0.00 | 0.00 | 51 | 1017.5 |
| 20260507143042 | 48 | 168 | 1.7 | 5.2 | 0.00 | 0.00 | 0.00 | 51 | 1017.6 |
| 20260507142553 | 47 | 169 | 0.9 | 7.0 | 0.00 | 0.00 | 0.00 | 51 | 1017.6 |
| 20260507142007 | 47 | 193 | 0.0 | 5.2 | 0.00 | 0.00 | 0.00 | 52 | 1017.7 |
| 20260507141517 | 47 | 163 | 0.9 | 5.2 | 0.00 | 0.00 | 0.00 | 52 | 1017.7 |
| 20260507141031 | 46 | 176 | 0.9 | 4.3 | 0.00 | 0.00 | 0.00 | 52 | 1017.7 |
| 20260507140541 | 46 | 155 | 0.9 | 4.3 | 0.00 | 0.00 | 0.00 | 53 | 1017.7 |
| 20260507140111 | 45 | 155 | 1.7 | 4.3 | 0.00 | 0.00 | 0.00 | 52 | 1017.7 |
| 20260507135512 | 45 | 150 | 0.9 | 6.1 | 0.00 | 0.00 | 0.00 | 53 | 1017.7 |
| 20260507135027 | 44 | 168 | 0.9 | 4.3 | 0.00 | 0.00 | 0.00 | 54 | 1017.8 |
| 20260507134537 | 44 | 158 | 1.7 | 4.3 | 0.00 | 0.00 | 0.00 | 54 | 1017.9 |
| 20260507134051 | 43 | 154 | 0.9 | 6.1 | 0.00 | 0.00 | 0.00 | 55 | 1017.9 |
| 20260507133503 | 42 | 151 | 0.9 | 6.1 | 0.00 | 0.00 | 0.00 | 56 | 1017.8 |
| 20260507133019 | 42 | 148 | 0.9 | 4.3 | 0.00 | 0.00 | 0.00 | 55 | 1017.8 |
| 20260507132528 | 41 | 179 | 0.9 | 4.3 | 0.00 | 0.00 | 0.00 | 55 | 1017.8 |
| 20260507132045 | 41 | 147 | 0.9 | 3.5 | 0.00 | 0.00 | 0.00 | 56 | 1017.7 |
| 20260507131618 | 40 | 159 | 0.0 | 4.3 | 0.00 | 0.00 | 0.00 | 57 | 1017.7 |
| 20260507131011 | 40 | 141 | 0.0 | 4.3 | 0.00 | 0.00 | 0.00 | 58 | 1017.7 |
| 20260507130521 | 40 | 150 | 0.9 | 4.3 | 0.00 | 0.00 | 0.00 | 60 | 1017.7 |
| 20260507130035 | 40 | 127 | 0.9 | 4.3 | 0.00 | 0.00 | 0.00 | 63 | 1017.7 |
| 20260507125547 | 40 | 155 | 0.9 | 3.5 | 0.00 | 0.00 | 0.00 | 67 | 1017.6 |
| 20260507125004 | 40 | 141 | 0.9 | 3.5 | 0.00 | 0.00 | 0.00 | 68 | 1017.5 |
| 20260507124521 | 40 | 158 | 0.9 | 2.6 | 0.00 | 0.00 | 0.00 | 69 | 1017.5 |
| 20260507124029 | 39 | 146 | 0.9 | 3.5 | 0.00 | 0.00 | 0.00 | 69 | 1017.5 |
| 20260507123544 | 39 | 125 | 0.9 | 3.5 | 0.00 | 0.00 | 0.00 | 70 | 1017.5 |
| 20260507123058 | 39 | 130 | 0.9 | 5.2 | 0.00 | 0.00 | 0.00 | 70 | 1017.3 |
| 20260507122513 | 39 | 154 | 0.9 | 5.2 | 0.00 | 0.00 | 0.00 | 70 | 1017.3 |
| 20260507122019 | 39 | 143 | 0.9 | 3.5 | 0.00 | 0.00 | 0.00 | 70 | 1017.2 |
| 20260507121533 | 39 | 142 | 0.9 | 3.5 | 0.00 | 0.00 | 0.00 | 69 | 1017.2 |
| 20260507121043 | 39 | 148 | 0.9 | 3.5 | 0.00 | 0.00 | 0.00 | 69 | 1017.1 |
| 20260507120557 | 39 | 155 | 0.9 | 3.5 | 0.00 | 0.00 | 0.00 | 69 | 1017.1 |
| 20260507120025 | 39 | 142 | 0.9 | 4.3 | 0.00 | 0.00 | 0.00 | 68 | 1017.1 |
| 20260507115525 | 39 | 150 | 0.9 | 3.5 | 0.00 | 0.00 | 0.00 | 67 | 1017.1 |
| 20260507115034 | 40 | 153 | 0.9 | 3.5 | 0.00 | 0.00 | 0.00 | 67 | 1017.1 |
| 20260507114549 | 40 | 153 | 0.9 | 5.2 | 0.00 | 0.00 | 0.00 | 67 | 1017.0 |
| 20260507114003 | 40 | 162 | 0.9 | 3.5 | 0.00 | 0.00 | 0.00 | 67 | 1017.0 |
| 20260507113518 | 39 | 174 | 0.9 | 3.5 | 0.00 | 0.00 | 0.00 | 65 | 1017.0 |
| 20260507113057 | 40 | 147 | 0.0 | 5.2 | 0.00 | 0.00 | 0.00 | 65 | 1017.1 |
| 20260507112543 | 40 | 153 | 1.7 | 5.2 | 0.00 | 0.00 | 0.00 | 64 | 1017.1 |
| 20260507112054 | 40 | 129 | 0.9 | 6.1 | 0.00 | 0.00 | 0.00 | 63 | 1017.1 |
| 20260507111507 | 40 | 152 | 1.7 | 6.1 | 0.00 | 0.00 | 0.00 | 62 | 1017.2 |
| 20260507111016 | 40 | 152 | 2.6 | 7.0 | 0.00 | 0.00 | 0.00 | 60 | 1017.2 |
| 20260507110531 | 40 | 146 | 2.6 | 7.0 | 0.00 | 0.00 | 0.00 | 58 | 1017.1 |
| 20260507110041 | 41 | 158 | 0.9 | 5.2 | 0.00 | 0.00 | 0.00 | 57 | 1017.2 |
| 20260507105554 | 41 | 155 | 0.9 | 4.3 | 0.00 | 0.00 | 0.00 | 56 | 1017.1 |
| 20260507105011 | 41 | 130 | 0.9 | 6.1 | 0.00 | 0.00 | 0.00 | 56 | 1017.2 |
| 20260507104521 | 41 | 117 | 1.7 | 5.2 | 0.00 | 0.00 | 0.00 | 55 | 1017.2 |
| 20260507104035 | 41 | 125 | 1.7 | 5.2 | 0.00 | 0.00 | 0.00 | 53 | 1017.1 |
| 20260507103546 | 41 | 170 | 1.7 | 4.3 | 0.00 | 0.00 | 0.00 | 52 | 1017.1 |
| 20260507103100 | 41 | 153 | 0.9 | 5.2 | 0.00 | 0.00 | 0.00 | 51 | 1017.2 |
| 20260507103002 | 41 | 141 | 0.9 | 5.2 | 0.00 | 0.00 | 0.00 | 50 | 1017.1 |
| 20260507102511 | 41 | 134 | 1.7 | 5.2 | 0.00 | 0.00 | 0.00 | 48 | 1017.1 |
| 20260507102025 | 41 | 132 | 1.7 | 6.1 | 0.00 | 0.00 | 0.00 | 46 | 1017.2 |
| 20260507101536 | 41 | 122 | 1.7 | 6.1 | 0.00 | 0.00 | 0.00 | 44 | 1017.0 |
| 20260507101053 | 41 | 154 | 0.9 | 6.1 | 0.00 | 0.00 | 0.00 | 43 | 1017.0 |
| 20260507100559 | 40 | 148 | 0.9 | 4.3 | 0.00 | 0.00 | 0.00 | 43 | 1017.0 |
| 20260507100501 | 40 | 133 | 0.9 | 4.3 | 0.00 | 0.00 | 0.00 | 42 | 1017.0 |
| 20260507100029 | 40 | 150 | 0.0 | 2.6 | 0.00 | 0.00 | 0.00 | 41 | 1017.1 |
| 20260507095525 | 40 | 133 | 0.0 | 3.5 | 0.00 | 0.00 | 0.00 | 40 | 1017.1 |
| 20260507095042 | 40 | 125 | 0.9 | 3.5 | 0.00 | 0.00 | 0.00 | 40 | 1017.2 |
| 20260507094550 | 40 | 126 | 0.0 | 3.5 | 0.00 | 0.00 | 0.00 | 40 | 1017.2 |
| 20260507094005 | 40 | 131 | 0.9 | 3.5 | 0.00 | 0.00 | 0.00 | 40 | 1017.0 |
| 20260507093515 | 40 | 131 | 0.9 | 3.5 | 0.00 | 0.00 | 0.00 | 40 | 1017.1 |
| 20260507093034 | 41 | 142 | 0.0 | 3.5 | 0.00 | 0.00 | 0.00 | 40 | 1017.0 |
| 20260507092539 | 41 | 134 | 0.0 | 3.5 | 0.00 | 0.00 | 0.00 | 39 | 1017.0 |
| 20260507092056 | 41 | 148 | 0.9 | 3.5 | 0.00 | 0.00 | 0.00 | 39 | 1017.0 |
| 20260507091504 | 41 | 137 | 0.0 | 4.3 | 0.00 | 0.00 | 0.00 | 38 | 1017.1 |
| 20260507091019 | 41 | 137 | 0.9 | 4.3 | 0.00 | 0.00 | 0.00 | 38 | 1017.0 |
| 20260507090529 | 41 | 146 | 0.0 | 0.9 | 0.00 | 0.00 | 0.00 | 38 | 1017.1 |
| 20260507090042 | 42 | 145 | 0.0 | 0.9 | 0.00 | 0.00 | 0.00 | 38 | 1017.1 |
| 20260507085552 | 42 | 145 | 0.0 | 1.7 | 0.00 | 0.00 | 0.00 | 37 | 1017.1 |
| 20260507085009 | 42 | 145 | 0.0 | 1.7 | 0.00 | 0.00 | 0.00 | 36 | 1017.0 |
| 20260507084542 | 43 | 146 | 0.0 | 2.6 | 0.00 | 0.00 | 0.00 | 36 | 1016.9 |
| 20260507084032 | 44 | 146 | 0.0 | 4.3 | 0.00 | 0.00 | 0.00 | 35 | 1016.9 |
| 20260507083549 | 44 | 147 | 0.0 | 4.3 | 0.00 | 0.00 | 0.00 | 34 | 1016.8 |
| 20260507083057 | 44 | 162 | 0.0 | 6.1 | 0.00 | 0.00 | 0.00 | 34 | 1016.8 |
| 20260507082514 | 45 | 172 | 0.9 | 6.1 | 0.00 | 0.00 | 0.00 | 33 | 1016.7 |
| 20260507082022 | 45 | 143 | 1.7 | 7.0 | 0.00 | 0.00 | 0.00 | 33 | 1016.4 |
| 20260507081538 | 45 | 116 | 1.7 | 7.0 | 0.00 | 0.00 | 0.00 | 34 | 1016.2 |
| 20260507081050 | 45 | 127 | 2.6 | 6.1 | 0.00 | 0.00 | 0.00 | 34 | 1016.2 |
| 20260507080509 | 44 | 119 | 2.6 | 5.2 | 0.00 | 0.00 | 0.00 | 34 | 1016.3 |
| 20260507080018 | 44 | 132 | 0.9 | 4.3 | 0.00 | 0.00 | 0.00 | 34 | 1016.3 |
| 20260507075535 | 44 | 128 | 0.9 | 4.3 | 0.00 | 0.00 | 0.00 | 35 | 1016.2 |
| 20260507075042 | 45 | 122 | 0.9 | 4.3 | 0.00 | 0.00 | 0.00 | 34 | 1016.2 |
| 20260507074557 | 45 | 131 | 1.7 | 4.3 | 0.00 | 0.00 | 0.00 | 34 | 1016.2 |
| 20260507074008 | 45 | 122 | 1.7 | 5.2 | 0.00 | 0.00 | 0.00 | 34 | 1016.3 |
| 20260507073522 | 45 | 121 | 1.7 | 5.2 | 0.00 | 0.00 | 0.00 | 33 | 1016.2 |
| 20260507073033 | 46 | 123 | 1.7 | 6.1 | 0.00 | 0.00 | 0.00 | 33 | 1016.2 |
| 20260507072547 | 46 | 123 | 1.7 | 6.1 | 0.00 | 0.00 | 0.00 | 33 | 1016.2 |
| 20260507072101 | 46 | 115 | 1.7 | 5.2 | 0.00 | 0.00 | 0.00 | 32 | 1016.1 |
| 20260507071516 | 47 | 129 | 1.7 | 5.2 | 0.00 | 0.00 | 0.00 | 32 | 1016.1 |
| 20260507071022 | 47 | 126 | 2.6 | 5.2 | 0.00 | 0.00 | 0.00 | 32 | 1016.0 |
| 20260507070537 | 47 | 117 | 1.7 | 5.2 | 0.00 | 0.00 | 0.00 | 31 | 1016.1 |
| 20260507070059 | 47 | 127 | 1.7 | 5.2 | 0.00 | 0.00 | 0.00 | 31 | 1016.0 |
| 20260507065502 | 48 | 131 | 0.9 | 5.2 | 0.00 | 0.00 | 0.00 | 31 | 1016.0 |
| 20260507065016 | 48 | 124 | 0.9 | 4.3 | 0.00 | 0.00 | 0.00 | 31 | 1016.0 |
| 20260507064527 | 48 | 121 | 1.7 | 6.1 | 0.00 | 0.00 | 0.00 | 31 | 1016.0 |
| 20260507064042 | 48 | 138 | 0.9 | 5.2 | 0.00 | 0.00 | 0.00 | 31 | 1015.9 |
| 20260507063551 | 48 | 120 | 1.7 | 4.3 | 0.00 | 0.00 | 0.00 | 31 | 1015.9 |
| 20260507063007 | 48 | 131 | 0.9 | 5.2 | 0.00 | 0.00 | 0.00 | 31 | 1015.8 |
| 20260507062518 | 48 | 115 | 0.9 | 4.3 | 0.00 | 0.00 | 0.00 | 31 | 1015.7 |
| 20260507062032 | 48 | 135 | 1.7 | 6.1 | 0.00 | 0.00 | 0.00 | 31 | 1015.7 |
| 20260507061543 | 48 | 131 | 1.7 | 6.1 | 0.00 | 0.00 | 0.00 | 32 | 1015.7 |
| 20260507061057 | 48 | 140 | 1.7 | 4.3 | 0.00 | 0.00 | 0.00 | 33 | 1015.6 |
| 20260507060508 | 48 | 117 | 1.7 | 5.2 | 0.00 | 0.00 | 0.00 | 33 | 1015.6 |
| 20260507060032 | 48 | 116 | 1.7 | 5.2 | 0.00 | 0.00 | 0.00 | 33 | 1015.5 |
| 20260507055530 | 49 | 127 | 1.7 | 5.2 | 0.00 | 0.00 | 0.00 | 33 | 1015.5 |
| 20260507055040 | 49 | 125 | 1.7 | 5.2 | 0.00 | 0.00 | 0.00 | 33 | 1015.4 |
| 20260507054554 | 49 | 129 | 1.7 | 5.2 | 0.00 | 0.00 | 0.00 | 33 | 1015.3 |
| 20260507054010 | 49 | 149 | 1.7 | 5.2 | 0.00 | 0.00 | 0.00 | 32 | 1015.3 |
| 20260507053521 | 50 | 124 | 1.7 | 5.2 | 0.00 | 0.00 | 0.00 | 33 | 1015.2 |
| 20260507053038 | 50 | 133 | 1.7 | 5.2 | 0.00 | 0.00 | 0.00 | 33 | 1015.2 |
| 20260507052546 | 50 | 146 | 1.7 | 5.2 | 0.00 | 0.00 | 0.00 | 34 | 1015.2 |
| 20260507052100 | 50 | 133 | 1.7 | 4.3 | 0.00 | 0.00 | 0.00 | 34 | 1015.2 |
| 20260507052002 | 50 | 113 | 1.7 | 4.3 | 0.00 | 0.00 | 0.00 | 34 | 1015.1 |
| 20260507051512 | 50 | 120 | 1.7 | 7.0 | 0.00 | 0.00 | 0.00 | 34 | 1015.1 |
| 20260507051026 | 51 | 138 | 2.6 | 7.0 | 0.00 | 0.00 | 0.00 | 34 | 1015.1 |
| 20260507050538 | 51 | 116 | 1.7 | 6.1 | 0.00 | 0.00 | 0.00 | 33 | 1015.0 |
| 20260507050105 | 51 | 143 | 1.7 | 6.1 | 0.00 | 0.00 | 0.00 | 34 | 1014.9 |
| 20260507045600 | 51 | 128 | 0.9 | 4.3 | 0.00 | 0.00 | 0.00 | 34 | 1014.8 |
| 20260507045502 | 51 | 134 | 0.9 | 5.2 | 0.00 | 0.00 | 0.00 | 34 | 1014.8 |
| 20260507045016 | 52 | 129 | 0.9 | 5.2 | 0.00 | 0.00 | 0.00 | 34 | 1014.8 |
| 20260507044536 | 52 | 118 | 0.9 | 5.2 | 0.00 | 0.00 | 0.00 | 35 | 1014.7 |